Cut Bank, MT

4:30 AM MST on November 20, 2019 (GMT -0700)
Cut Bank Municipal

Weather History for KCTB - September, 2019

Change the Weather History Date:

Tuesday, September 17, 2019

  Actual Average Record
Temperature  
Mean Temperature 53 °F 53 °F  
Max Temperature 63 °F 67 °F 90 °F (1981)
Min Temperature 43 °F 39 °F 24 °F (1973)
Degree Days  
Heating Degree Days 12 12  
Month to date heating degree days 108 159  
Since 1 July heating degree days 281 353  
Cooling Degree Days 0 0  
Month to date cooling degree days 2 6  
Year to date cooling degree days 106 159  
Growing Degree Days 3 (Base 50)    
Moisture  
Dew Point 39 °F    
Average Humidity 58    
Maximum Humidity 74    
Minimum Humidity 36    
Precipitation  
Precipitation 0.02 in 0.04 in 1.45 in (1996)
Month to date precipitation 0.51 0.75  
Year to date precipitation 9.34 9.41  
Snow  
Snow - - - ()
Snow Depth 0.00 in    
Sea Level Pressure  
Sea Level Pressure 29.78 in    
Wind  
Wind Speed 11 mph ()    
Max Wind Speed 25 mph    
Max Gust Speed 32 mph    
Visibility 9.9 miles    
Events Rain    
T = Trace of Precipitation, MM = Missing Value Source: Averaged Metar Reports

Daily Weather History Graph

Daily Weather History Graph

Search for Another Location

Airport or City:

Astronomy

Sep. 17, 2019 Rise Set
Actual Time 7:08 AM MDT 7:38 PM MDT
Civil Twilight 6:37 AM MDT 8:09 PM MDT
Nautical Twilight 5:59 AM MDT 8:47 PM MDT
Astronomical Twilight 5:20 AM MDT 9:25 PM MDT
Moon 9:27 PM MDT (9/17) 10:30 AM MDT (9/17)
Length of Visible Light 13h 32m
Length of Day
12h 29m
Waning Gibbous, 89% of the Moon is Illuminated
Sep 17
Waning Gibbous
Sep 21
Last Quarter
Sep 28
New
Oct 5
First Quarter
Oct 13
Full

Hourly Weather History & Observations

Time (MDT) Temp. Windchill Dew Point Humidity Pressure Visibility Wind Dir Wind Speed Gust Speed Precip Events Conditions
12:56 AM 57.9 °F - 44.1 °F 60% 29.63 in 10.0 mi WNW 10.4 mph - 0.00 in   Scattered Clouds
1:56 AM 54.0 °F - 43.0 °F 66% 29.64 in 10.0 mi WNW 10.4 mph - N/A   Partly Cloudy
2:56 AM 53.1 °F - 41.0 °F 64% 29.64 in 10.0 mi WNW 13.8 mph - N/A   Overcast
4:56 AM 53.1 °F - 41.0 °F 64% 29.66 in 10.0 mi WNW 13.8 mph - N/A   Overcast
5:56 AM 54.0 °F - 39.9 °F 59% 29.67 in 10.0 mi WNW 11.5 mph - N/A   Overcast
8:56 AM 54.0 °F - 39.9 °F 59% 29.73 in 10.0 mi WNW 10.4 mph - N/A   Overcast
9:56 AM 55.9 °F - 41.0 °F 57% 29.76 in 10.0 mi WNW 9.2 mph - N/A   Overcast
10:56 AM 53.1 °F - 45.0 °F 74% 29.79 in 8.0 mi WNW 10.4 mph - 0.02 in Rain Light Rain
11:56 AM 54.0 °F - 44.1 °F 69% 29.79 in 10.0 mi West 11.5 mph - 0.00 in   Overcast
12:56 PM 54.0 °F - 42.1 °F 64% 29.80 in 10.0 mi West 18.4 mph - 0.00 in Rain Light Rain
1:56 PM 55.9 °F - 39.9 °F 55% 29.81 in 10.0 mi West 17.3 mph - 0.00 in   Mostly Cloudy
2:56 PM 55.0 °F - 39.9 °F 57% 29.82 in 10.0 mi West 17.3 mph - N/A   Overcast
3:56 PM 62.1 °F - 37.9 °F 41% 29.81 in 10.0 mi West 15.0 mph 20.7 mph N/A   Partly Cloudy
4:56 PM 59.0 °F - 35.1 °F 41% 29.82 in 10.0 mi WSW 23.0 mph - N/A   Scattered Clouds
5:56 PM 61.0 °F - 34.0 °F 36% 29.82 in 10.0 mi West 18.4 mph - N/A   Clear
6:56 PM 57.0 °F - 34.0 °F 42% 29.85 in 10.0 mi West 12.7 mph - N/A   Clear
7:56 PM 51.1 °F - 34.0 °F 52% 29.88 in 10.0 mi West 12.7 mph - N/A   Clear
8:56 PM 48.9 °F - 35.1 °F 59% 29.88 in 10.0 mi WSW 12.7 mph - N/A   Clear
9:56 PM 48.0 °F - 35.1 °F 61% 29.87 in 10.0 mi WSW 11.5 mph - N/A   Clear
10:56 PM 44.1 °F 41.5 °F 35.1 °F 71% 29.89 in 10.0 mi West 4.6 mph - N/A   Clear
11:56 PM 45.0 °F 40.6 °F 35.1 °F 68% 29.88 in 10.0 mi West 8.1 mph - N/A   Clear